Regional Weather Roundup
Issued by NWS

Home | Current Version | Previous Version | Text Only | Print | Product List | Glossary On
Versions: 1 2 3 4 5 6 7 8 9 10 11 12 13 14 15 16 17 18 19 20 21 22 23 24 25 26 27 28 29 30 31 32 33 34 35 36 37 38 39 40 41 42 43 44 45 46 47 48 49 50
000
ASUS43 KLSX 291759
RWRMO

WEATHER SUMMARY FOR MISSOURI
NATIONAL WEATHER SERVICE SPRINGFIELD MO
100 PM CDT FRI AUG 29 2014

NOTE: "FAIR" INDICATES FEW OR NO CLOUDS BELOW 12,000 FEET WITH NO
       SIGNIFICANT WEATHER AND/OR OBSTRUCTIONS TO VISIBILITY.
       CURRENT SKY AND/OR WEATHER CONDITIONS ARE NOT AVAILABLE FOR
       CHILLICOTHE AND FARMINGTON.

MOZ001>031-035>038-043-044-053-054-291900-
...NORTHERN AND WESTERN MISSOURI...

CITY           SKY/WX    TMP DP  RH WIND       PRES   REMARKS
KANSAS CTY INT LGT RAIN  71  68  90 S10       29.88F
6HR MIN TEMP:  68; 6HR MAX TEMP:  81; 6HR PCP:  0.03;

KANSAS C DTWN  LGT RAIN  73  68  84 S6        29.87F
6HR MIN TEMP:  72; 6HR MAX TEMP:  82; 6HR PCP:  0.22;

LEE`S SUMMIT   CLOUDY    72  70  93 S3        29.88F
6HR MIN TEMP:  70; 6HR MAX TEMP:  79; 6HR PCP:  0.25;

ST JOSEPH      LGT RAIN  73  68  84 S7        29.86R
6HR MIN TEMP:  68; 6HR MAX TEMP:  76; 6HR PCP: TRACE;


$$
MOZ066>068-077>081-088>096-101>105-291900-
...SOUTHWEST MISSOURI...

CITY           SKY/WX    TMP DP  RH WIND       PRES   REMARKS
SPRINGFIELD    PTSUNNY   86  66  51 SW14      29.91F
6HR MIN TEMP:  71; 6HR MAX TEMP:  88;

JOPLIN         PTSUNNY   86  66  51 S13G24    29.91F
6HR MIN TEMP:  73; 6HR MAX TEMP:  86; 6HR PCP: TRACE;


$$
MOZ032>034-039>042-045>050-055>058-069>072-291900-
...CENTRAL MISSOURI...

CITY           SKY/WX    TMP DP  RH WIND       PRES   REMARKS
COLUMBIA       MOSUNNY   91  66  43 S15G25    29.88F HX  93
6HR MIN TEMP:  71; 6HR MAX TEMP:  92;

JEFFERSON CITY SUNNY     90  66  45 S10G20    29.86F HX  92
6HR MIN TEMP:  70; 6HR MAX TEMP:  90;

ROLLA          MOSUNNY   89  63  41 S16G24    29.91F HX  90
6HR MIN TEMP:  69; 6HR MAX TEMP:  90;

SEDALIA        LGT RAIN  78  69  73 SW8       29.88F
6HR MIN TEMP:  69; 6HR MAX TEMP:  88; 6HR PCP:  0.01;

OSAGE BEACH    PTSUNNY   91  66  43 S15G22    29.87F HX  94

$$
MOZ051-052-059>065-291900-
...EAST CENTRAL MISSOURI...

CITY           SKY/WX    TMP DP  RH WIND       PRES   REMARKS
ST LOUIS INTL  MOSUNNY   90  67  46 S7G18     29.92F HX  93
6HR MIN TEMP:  75; 6HR MAX TEMP:  90;

SPIRIT OF STL  MOSUNNY   88  65  46 S8        29.90F HX  90
6HR MIN TEMP:  69; 6HR MAX TEMP:  89;

ST CHARLES     MOSUNNY   88  67  49 S9        29.90F HX  91
6HR MIN TEMP:  72; 6HR MAX TEMP:  89;


$$
MOZ072>076-082>087-097>100-106>115-291900-
...SOUTH CENTRAL AND SOUTHEAST MISSOURI...

CITY           SKY/WX    TMP DP  RH WIND       PRES   REMARKS
CAPE GIRARDEAU MOSUNNY   88  69  53 SW12G17   29.95F HX  92
6HR MIN TEMP:  67; 6HR MAX TEMP:  88;

FARMINGTON     PTSUNNY   88  64  45 S13       29.97F
6HR MIN TEMP:  70; 6HR MAX TEMP:  90;

POPLAR BLUFF   MOSUNNY   90  64  42 VRB7      29.94F HX  91
6HR MIN TEMP:  71; 6HR MAX TEMP:  92;

WEST PLAINS    PTSUNNY   86  64  47 SW10      29.96F
6HR MIN TEMP:  65; 6HR MAX TEMP:  88;


$$


USA.gov is the U.S. government's official web portal to all federal, state and local government web resources and services.